This is the latest recevied weather packets stored in our database for station/object IW5CI-13. If no packets are shown the sender has not sent any weather packets the latest 10 day(s).
| Time | Temp. | Humidity | Pressure | Rain* | Wind** | Luminosity | Snow |
|---|---|---|---|---|---|---|---|
| 1777851386 | 12.78° C | 32% | 1019.5 hPa | - | - | - | - |
| 1777850182 | 13.89° C | 30% | 1019.5 hPa | - | - | - | - |
| 1777848977 | 14.44° C | 29% | 1019.5 hPa | - | - | - | - |
| 1777846569 | 15° C | 28% | 1019.6 hPa | - | - | - | - |
| 1777845364 | 15° C | 28% | 1019.4 hPa | - | - | - | - |
| 1777841751 | 16.67° C | 27% | 1019.1 hPa | - | - | - | - |
| 1777840546 | 16.67° C | 26% | 1019.1 hPa | - | - | - | - |
| 1777838138 | 17.22° C | 24% | 1018.8 hPa | - | - | - | - |
| 1777836933 | 17.78° C | 23% | 1018.6 hPa | - | - | - | - |
| 1777835729 | 17.78° C | 23% | 1018.4 hPa | - | - | - | - |
| 1777834524 | 18.33° C | 23% | 1018.1 hPa | - | - | - | - |
| 1777833319 | 18.33° C | 23% | 1017.9 hPa | - | - | - | - |
| 1777832114 | 18.89° C | 23% | 1017.7 hPa | - | - | - | - |
| 1777829703 | 19.44° C | 21% | 1017.4 hPa | - | - | - | - |
| 1777828499 | 19.44° C | 20% | 1017.4 hPa | - | - | - | - |
| 1777827294 | 19.44° C | 21% | 1017.4 hPa | - | - | - | - |
| 1777826090 | 20° C | 20% | 1017.5 hPa | - | - | - | - |
| 1777824886 | 20° C | 20% | 1017.3 hPa | - | - | - | - |
| 1777823683 | 20° C | 19% | 1017.4 hPa | - | - | - | - |
| 1777822479 | 20° C | 18% | 1017.4 hPa | - | - | - | - |
| 1777821276 | 20° C | 19% | 1017.7 hPa | - | - | - | - |
| 1777820072 | 20° C | 19% | 1017.8 hPa | - | - | - | - |
| 1777818869 | 20.56° C | 19% | 1018.3 hPa | - | - | - | - |
| 1777817665 | 20.56° C | 20% | 1018.6 hPa | - | - | - | - |
| 1777816462 | 21.11° C | 19% | 1018.8 hPa | - | - | - | - |
* Rain since midnight (hover to see other rain measurements)
** Current wind speed in m/s (hover to see current wind gust speed)